043  
ASUS42 KKEY 292110  
RWRKEY  
 
FLORIDA REGIONAL WEATHER ROUNDUP FOR THE FLORIDA KEYS  
NATIONAL WEATHER SERVICE KEY WEST FLORIDA  
500 PM EDT FRI JUL 29 2016  
   
..SOUTH FLORIDA AND THE KEYS
 
 
 
CITY SKY/WX TMP DP RH WIND PRES REMARKS
 
FORT MYERS TSTM 79 77 94 NW16G24 30.04R FOG  
SW REGIONAL AP CLOUDY 81 70 69 N7 30.03F  
NAPLES PTSUNNY 89 76 65 W8 30.01F HX 100  
MIAMI PTSUNNY 89 75 63 SE9 30.02F HX 99  
WEST KENDALL SUNNY 90 73 57 S6 30.02F HX 98  
HOMESTEAD SUNNY 90 75 61 E5 30.02S HX 99  
MARATHON MOSUNNY 88 78 72 VRB6 30.02F HX 101  
BOCA CHICA NAS MOSUNNY 87 77 72 E7 30.02F HX 99  
KEY WEST INTL SUNNY 88 79 74 SE8 30.03F HX 103  
   
..INTERNATIONAL WEATHER
 
 
 
CITY SKY/WX TMP DP RH WIND PRES REMARKS
 
NASSAU BAHAMAS PTSUNNY 90 75 62 N5 30.04S HX 100  
CANCUN MEXICO MOSUNNY 88 79 74 E9 29.98F HX 102  
COZUMEL MEXICO PTSUNNY 88 75 66 E16 29.96F HX 97  
 
ADJACENT COASTAL WATERS...  
 
STATION/POSITION TIME SKY/WX TEMP WIND PRES WAVE
 
AIR SEA DIR/SP/G HT/PER  
(UTC) (F) (DEG/KT/KT) (MB) (FT/S)  
PULASKI SHOAL LI 2100 86 110/ 3/ 4 1016.8F  
SAND KEY 2050 85 140/ 6/ 8 1017.2F  
LONG KEY 2000 87 89 140/ 6/ 7 1017.1F  
FOWEY ROCKS 2100 85 85 120/ 7/ 7 1017.2F  
 

 
 
 
CLICK HERE TO GO TO PREVIOUS BULLETINS.

The Nexlab FL Page Main Text Page